Location: Brunembert
(50.7122°N, 1.8935°E)
Time: 19:07:19
(UTC+00:00)

X-37B - Pass Details

Date: 02 October 2021
Orbit: 385 x 389 km, 45.0° (Epoch: 17 October)

Event Time Altitude Azimuth Distance (km) Brightness Sun altitude
Exits shadow 03:20:32 11° 129° (SE) 1,376 3.6 -24.5°
Drops below altitude 10° 03:20:38 10° 128° (SE) 1,412 3.7 -24.5°
Sets 03:22:53 0° 116° (ESE) 2,266 5.0 -24.2°
